Regional Weather Roundup
Issued by NWS Goodland, KS

Home | Current Version | Previous Version | Graphics & Text | Print | Product List | Glossary On
Versions: 1 2 3 4 5 6 7 8 9 10 11 12 13 14 15 16 17 18 19 20 21 22 23 24 25 26 27 28 29 30 31 32 33 34 35 36 37 38 39 40 41 42 43 44 45 46 47 48 49 50
000
ASUS43 KGLD 031308
RWRGLD

GOODLAND FORECAST AREA HOURLY WEATHER ROUNDUP
NATIONAL WEATHER SERVICE GOODLAND KS
600 AM MST SAT DEC 03 2016

...OFFICIAL OBSERVATIONS...

CITY           SKY/WX    TMP DP  RH WIND       PRES   REMARKS
GOODLAND KS    CLOUDY    21  14  74 S9        30.12S
HILL CITY KS   CLOUDY    31  26  82 CALM      30.20F
IMPERIAL NEB   CLOUDY    30  23  75 S8        30.12F
MCCOOK NEB     CLOUDY    27  22  81 CALM      30.16F
AKRON CO       CLEAR     22  16  78 S9        30.03F
BURLINGTON CO  CLOUDY    20  13  74 S8        30.10S
LIMON CO       CLOUDY    17  15  92 SE7       30.04F
$$

...UNOFFICIAL OBSERVATIONS...

CITY           SKY/WX    TMP DP  RH WIND       PRES   REMARKS
COLBY KS       CLOUDY    30  23  74 SW5       30.16R
LENORA KS        N/A     31  32 100 MISG        N/A
NORTON KS      CLOUDY    28  21  74 SE3       30.18
SHARON SPRINGS   N/A     31  22  68 S8          N/A
TRENTON NEB      N/A     26  32 100 CALM        N/A
KIT CARSON CO    N/A     16  13  87 CALM        N/A
YUMA CO        FAIR      12  10  92 S5        30.07F
$$




USA.gov is the U.S. government's official web portal to all federal, state and local government web resources and services.